This demonstration page uses our WeatherBlox Daily Observations layout. Learn more.

Left ArrowRight Arrow

34.74481, -87.66753

Hourly Observations for April 25, 2021

Temp ( °F °C ) Dew Point ( °F °C ) Humidity (%) Winds ( mph kmh ) Pressure ( in mb ) Visibility ( mi km ) Precip ( " mm )
12:26 am 00:26 Cloudy 58 14.4 48 8.9 70 70 N 7 11 29.93 1014 10 16 0.00 0.00
12:44 am 00:44 Cloudy 58 14.4 48 8.9 70 70 NNW 7 11 29.93 1014 10 16 0.00 0.00
12:53 am 00:53 Cloudy 58 14.4 48 8.9 70 70 NNW 6 9 29.93 1013 10 16 0.00 0.00
1:53 am 01:53 Mostly Cloudy 57 13.9 48 8.9 72 72 NNW 5 7 29.93 1014 10 16 0.00 0.00
2:20 am 02:20 Cloudy 57 13.9 47 8.3 69 69 NNW 6 9 29.95 1014 10 16 0.00 0.00
2:30 am 02:30 Cloudy 57 13.9 47 8.3 69 69 NNW 7 11 29.95 1014 10 16 0.00 0.00
2:53 am 02:53 Cloudy 57 13.9 47 8.3 69 69 N 6 9 29.94 1014 10 16 0.00 0.00
3:53 am 03:53 Cloudy 57 13.9 48 8.9 72 72 NW 3 6 29.95 1014 10 16 0.00 0.00
4:53 am 04:53 Cloudy 57 13.9 48 8.9 72 72 NW 5 7 29.98 1015 10 16 0.00 0.00
5:53 am 05:53 Cloudy 57 13.9 48 8.9 72 72 N 5 7 29.99 1016 10 16 0.00 0.00
6:53 am 06:53 Cloudy 57 13.9 47 8.3 69 69 N 5 7 30.01 1016 10 16 0.00 0.00
7:53 am 07:53 Cloudy 58 14.4 48 8.9 70 70 N 6 9 30.03 1017 10 16 0.00 0.00
8:53 am 08:53 Cloudy 59 15 47 8.3 64 64 NNE 8 13 30.05 1018 10 16 0.00 0.00
9:53 am 09:53 Cloudy 61 16.1 47 8.3 60 60 NW 8 13 30.08 1019 10 16 0.00 0.00
10:12 am 10:12 Mostly Cloudy 61 16.1 48 8.9 63 63 N 7 11 30.09 1019 10 16 0.00 0.00
10:53 am 10:53 Mostly Cloudy 65 18.3 48 8.9 54 54 VRB 7 11 30.08 1019 10 16 0.00 0.00
11:53 am 11:53 Partly Cloudy 66 18.9 47 8.3 50 50 VRB 3 6 30.08 1019 10 16 0.00 0.00
12:53 pm 12:53 Mostly Cloudy 69 20.6 49 9.4 49 49 VRB 7 11 30.06 1018 10 16 0.00 0.00
1:53 pm 13:53 Mostly Sunny 72 22.2 48 8.9 43 43 VRB 6 9 30.04 1017 10 16 0.00 0.00
2:53 pm 14:53 Sunny 73 22.8 47 8.3 40 40 VRB 3 6 30.03 1017 10 16 0.00 0.00
3:53 pm 15:53 Sunny 73 22.8 44 6.7 35 35 Calm 30.00 1016 10 16 0.00 0.00
4:53 pm 16:53 Sunny 75 23.9 43 6.1 32 32 NE 6 9 30.00 1016 10 16 0.00 0.00
5:53 pm 17:53 Sunny 74 23.3 42 5.6 32 32 NNE 7 11 30.00 1016 10 16 0.00 0.00
6:53 pm 18:53 Sunny 71 21.7 44 6.7 38 38 ENE 6 9 30.01 1016 10 16 0.00 0.00
7:53 pm 19:53 Clear 63 17.2 49 9.4 60 60 E 5 7 30.02 1017 10 16 0.00 0.00
8:53 pm 20:53 Clear 64 17.8 46 7.8 52 52 NE 6 9 30.04 1017 10 16 0.00 0.00
10:53 pm 22:53 Clear 57 13.9 47 8.3 69 69 Calm 30.04 1017 10 16 0.00 0.00
11:53 pm 23:53 Clear 53 11.7 46 7.8 77 77 Calm 30.05 1018 10 16 0.00 0.00

Powered by AerisWeather